| time (UTC) | temp F | wind direction | speed knots | gust knots | rain 1hr in | rain 24hr in | rain mn in | humidity % | barometer mb |
| 20260504081541 | 43 | 280 | 0.0 | 4.3 | 0.00 | 0.00 | 0.00 | 73 | 1001.9 |
| 20260504050010 | 51 | 280 | 1.7 | 2.6 | 0.00 | 0.00 | 0.00 | 65 | 1002.5 |
| 20260504044514 | 52 | 280 | 1.7 | 6.1 | 0.00 | 0.00 | 0.00 | 63 | 1002.7 |
| 20260504043013 | 53 | 280 | 3.5 | 7.0 | 0.00 | 0.00 | 0.00 | 62 | 1003.0 |
| 20260504041532 | 52 | 280 | 3.5 | 4.3 | 0.00 | 0.00 | 0.00 | 63 | 1003.2 |
| 20260504040015 | 53 | 280 | 3.5 | 4.3 | 0.00 | 0.00 | 0.00 | 60 | 1003.2 |
| 20260504034510 | 56 | 280 | 0.9 | 3.5 | 0.00 | 0.00 | 0.00 | 55 | 1003.0 |
| 20260504033008 | 57 | 280 | 0.9 | 3.5 | 0.00 | 0.00 | 0.00 | 53 | 1002.9 |
| 20260504031508 | 59 | 280 | 3.5 | 7.8 | 0.00 | 0.00 | 0.00 | 51 | 1003.0 |
| 20260504030006 | 57 | 280 | 2.6 | 5.2 | 0.00 | 0.00 | 0.00 | 54 | 1002.7 |
| 20260504024505 | 58 | 280 | 0.9 | 3.5 | 0.00 | 0.00 | 0.00 | 53 | 1002.9 |
| 20260504023005 | 59 | 280 | 1.7 | 3.5 | 0.00 | 0.00 | 0.00 | 50 | 1003.0 |
| 20260504021504 | 60 | 280 | 1.7 | 5.2 | 0.00 | 0.00 | 0.00 | 47 | 1002.9 |
| 20260504020005 | 62 | 280 | 2.6 | 5.2 | 0.00 | 0.00 | 0.00 | 46 | 1002.9 |
| 20260504014602 | 63 | 280 | 2.6 | 6.1 | 0.00 | 0.00 | 0.00 | 45 | 1003.2 |
| 20260504013126 | 64 | 280 | 1.7 | 4.3 | 0.00 | 0.00 | 0.00 | 43 | 1003.2 |
| 20260504011557 | 65 | 280 | 2.6 | 6.1 | 0.00 | 0.00 | 0.00 | 42 | 1003.4 |
| 20260504010058 | 66 | 280 | 2.6 | 5.2 | 0.00 | 0.00 | 0.00 | 40 | 1003.8 |
| 20260504004555 | 67 | 280 | 4.3 | 7.0 | 0.00 | 0.00 | 0.00 | 38 | 1003.9 |
| 20260504003053 | 69 | 280 | 3.5 | 7.0 | 0.00 | 0.00 | 0.00 | 37 | 1004.2 |
| 20260504001553 | 70 | 280 | 4.3 | 10.4 | 0.00 | 0.00 | 0.00 | 35 | 1004.4 |
| 20260504000050 | 70 | 280 | 5.2 | 12.2 | 0.00 | 0.00 | 0.00 | 32 | 1004.3 |
| 20260503234548 | 69 | 280 | 8.7 | 16.5 | 0.00 | 0.00 | 0.00 | 33 | 1004.7 |
| 20260503233046 | 71 | 280 | 6.1 | 14.8 | 0.00 | 0.00 | 0.00 | 29 | 1004.8 |
| 20260503231543 | 71 | 280 | 10.4 | 15.6 | 0.00 | 0.00 | 0.00 | 28 | 1005.2 |
| 20260503230042 | 72 | 280 | 5.2 | 10.4 | 0.00 | 0.00 | 0.00 | 30 | 1005.2 |
| 20260503224538 | 71 | 280 | 5.2 | 11.3 | 0.00 | 0.00 | 0.00 | 28 | 1005.2 |
| 20260503223036 | 70 | 280 | 8.7 | 13.0 | 0.00 | 0.00 | 0.00 | 29 | 1005.6 |
| 20260503221533 | 70 | 280 | 5.2 | 11.3 | 0.00 | 0.00 | 0.00 | 29 | 1005.8 |
| 20260503220030 | 71 | 280 | 8.7 | 15.6 | 0.00 | 0.00 | 0.00 | 27 | 1006.2 |
| 20260503214537 | 70 | 280 | 7.0 | 13.0 | 0.00 | 0.00 | 0.00 | 29 | 1006.5 |
| 20260503213025 | 70 | 280 | 6.1 | 9.6 | 0.00 | 0.00 | 0.00 | 28 | 1006.9 |
| 20260503211522 | 69 | 280 | 3.5 | 13.9 | 0.00 | 0.00 | 0.00 | 28 | 1007.1 |
| 20260503210019 | 71 | 280 | 7.8 | 14.8 | 0.00 | 0.00 | 0.00 | 28 | 1007.5 |
| 20260503204516 | 71 | 280 | 8.7 | 13.0 | 0.00 | 0.00 | 0.00 | 26 | 1007.9 |
| 20260503203014 | 70 | 280 | 5.2 | 16.5 | 0.00 | 0.00 | 0.00 | 26 | 1008.0 |
| 20260503201510 | 69 | 280 | 9.6 | 14.8 | 0.00 | 0.00 | 0.00 | 26 | 1008.5 |
| 20260503200010 | 68 | 280 | 5.2 | 12.2 | 0.00 | 0.00 | 0.00 | 26 | 1008.6 |
| 20260503194508 | 69 | 280 | 7.8 | 15.6 | 0.00 | 0.00 | 0.00 | 27 | 1008.8 |
| 20260503193003 | 68 | 280 | 7.0 | 13.0 | 0.00 | 0.00 | 0.00 | 25 | 1009.2 |
| 20260503191501 | 68 | 280 | 7.0 | 12.2 | 0.00 | 0.00 | 0.00 | 26 | 1009.5 |
| 20260503190057 | 67 | 280 | 3.5 | 9.6 | 0.00 | 0.00 | 0.00 | 27 | 1009.9 |
| 20260503184603 | 67 | 280 | 3.5 | 7.8 | 0.00 | 0.00 | 0.00 | 27 | 1010.2 |
| 20260503183053 | 66 | 280 | 4.3 | 9.6 | 0.00 | 0.00 | 0.00 | 28 | 1010.5 |
| 20260503181554 | 66 | 280 | 5.2 | 7.8 | 0.00 | 0.00 | 0.00 | 28 | 1010.7 |
| 20260503180150 | 66 | 280 | 0.9 | 6.1 | 0.00 | 0.00 | 0.00 | 27 | 1010.9 |
| 20260503174553 | 65 | 280 | 5.2 | 8.7 | 0.00 | 0.00 | 0.00 | 28 | 1011.3 |
| 20260503173046 | 65 | 280 | 0.9 | 4.3 | 0.00 | 0.00 | 0.00 | 27 | 1011.6 |
| 20260503171544 | 66 | 280 | 1.7 | 5.2 | 0.00 | 0.00 | 0.00 | 27 | 1011.8 |